Location: Bratislava
(48.1500°N, 17.1170°E)
Time: 17:15:27
(UTC+02:00)

BlueWalker 3 - Visible Passes

Search period start: 10 May 2026 00:00
Search period end: 20 May 2026 00:00
Orbit: 448 x 458 km, 53.2° (Epoch: 10 May)

Date Brightness Start Highest point End Pass type
(mag) Time Alt. Az. Time Alt. Az. Time Alt. Az.
10 May 1.8 03:06:29 47° SSW 03:07:09 58° SSE 03:10:39 10° ENE visible
10 May 2.7 04:41:16 10° W 04:44:40 43° NNW 04:48:05 10° ENE visible
11 May 2.3 02:30:49 43° ESE 02:30:49 43° ESE 02:33:51 10° ENE visible
11 May 2.5 04:04:26 10° W 04:07:52 48° NNW 04:11:19 10° ENE visible
12 May 3.4 01:55:07 25° E 01:55:07 25° E 01:57:00 10° ENE visible
12 May 2.2 03:28:43 19° W 03:31:03 55° NNW 03:34:32 10° ENE visible
13 May 4.2 01:19:21 14° E 01:19:21 14° E 01:20:06 10° E visible
13 May 2.0 02:52:58 36° W 02:54:14 65° NNW 02:57:46 10° ENE visible
13 May 3.2 04:28:44 10° WNW 04:32:02 35° N 04:35:20 10° ENE visible
14 May 1.7 02:17:09 71° WNW 02:17:26 78° NNW 02:20:59 10° ENE visible
14 May 3.2 03:51:52 10° WNW 03:55:10 35° N 03:58:29 10° ENE visible
15 May 2.1 01:41:17 57° ENE 01:41:17 57° ENE 01:44:12 10° ENE visible
15 May 3.1 03:14:57 10° WNW 03:18:18 37° N 03:21:38 10° ENE visible
16 May 3.1 01:05:20 32° ENE 01:05:20 32° ENE 01:07:23 10° ENE visible
16 May 2.9 02:38:57 16° WNW 02:41:25 40° NNW 02:44:48 10° ENE visible
16 May 3.2 04:16:00 10° WNW 04:19:20 38° N 04:22:41 10° E visible
17 May 3.7 00:29:18 20° ENE 00:29:18 20° ENE 00:30:33 10° ENE visible
17 May 2.8 02:02:54 25° WNW 02:04:33 44° NNW 02:07:59 10° ENE visible
17 May 3.3 03:39:08 10° WNW 03:42:27 36° N 03:45:46 10° ENE visible
17 May 4.1 23:53:08 14° ENE 23:53:08 14° ENE 23:53:41 10° ENE visible
18 May 2.5 01:26:43 37° WNW 01:27:41 49° NNW 01:31:09 10° ENE visible
18 May 3.3 03:02:15 10° WNW 03:05:33 35° N 03:08:51 10° ENE visible
18 May 4.4 23:16:44 10° ENE 23:16:44 10° ENE 23:16:45 10° ENE visible
19 May 2.2 00:50:18 50° WNW 00:50:49 57° NNW 00:54:20 10° ENE visible
19 May 3.4 02:25:22 10° WNW 02:28:39 34° N 02:31:56 10° ENE visible
19 May 2.4 04:02:58 10° WNW 04:06:29 58° NNE 04:09:59 10° E visible
